Regional Weather Roundup
Issued by NWS

Home | Current Version | Previous Version | Text Only | Print | Product List | Glossary Off
Versions: 1 2 3 4 5 6 7 8 9 10 11 12 13 14 15 16 17 18 19 20 21 22 23 24 25 26 27 28 29 30 31 32 33 34 35 36 37 38 39 40 41 42 43 44 45 46 47 48 49 50

000
ASUS43 KIND 261959
RWRIN

WEATHER ROUNDUP FOR INDIANA
NATIONAL WEATHER SERVICE INDIANAPOLIS IN
400 PM EDT THU MAR 26 2015

NOTE: "FAIR" INDICATES FEW OR NO CLOUDS BELOW 12,000 FEET WITH NO
SIGNIFICANT WEATHER AND/OR OBSTRUCTIONS TO VISIBILITY.

* - STATION DOES NOT REPORT WEATHER SUCH AS PRECIPITATION OR FOG.

+ - STATION NOT QUALITY CONTROLLED BY THE NATIONAL WEATHER SERVICE.
    USE DATA WITH CAUTION...ESPECIALLY DEWPOINT AND RELATIVE
    HUMIDITY OBSERVATIONS.

INZ001>003-010>013-019-020-262100-
NORTHWEST INDIANA

CITY           SKY/WX    TMP DP  RH WIND       PRES   REMARKS
KNOX *+          N/A     41   9  26 N10G20    29.92F

$$

LMZ046-743>745-262100-
SOUTHERN LAKE MICHIGAN

STATION/POSITION TIME  TEMP WIND        PRES
                       AIR  DIR/SP/G
                 (UTC) (F)  (DEG/KT/KT) (MB)
BURNS HARBOR     1900   38   40/  5/  6 1014.6F
MICHIGAN CITY    1900   36  260/  3/  4   N/A

$$

INZ004-005-014>016-021>024-262100-
NORTH CENTRAL INDIANA

CITY           SKY/WX    TMP DP  RH WIND       PRES   REMARKS
ELKHART        PTSUNNY   39  19  45 NW12G21   29.92S
GOSHEN         PTSUNNY   42  25  50 NW20G25   29.88F
SOUTH BEND     PTSUNNY   41  22  46 NW18G26   29.93F
WARSAW +       MOSUNNY   41  27  56 NW10G20   29.90S

$$

INZ006>009-017-018-025>027-262100-
NORTHEAST INDIANA

CITY           SKY/WX    TMP DP  RH WIND       PRES   REMARKS
ANGOLA *+      MOSUNNY   43  28  56 NW15      29.86S
FORT WAYNE     CLOUDY    43  31  62 W16G22    29.88S

$$

INZ028-029-035-036-043>045-051>053-262100-
WEST CENTRAL INDIANA

CITY           SKY/WX    TMP DP  RH WIND       PRES   REMARKS
CRAWFORDSVL +  CLOUDY    40  28  60 MISG      29.95F
GREENCASTLE +  CLOUDY    41  28  60 NW8       29.96S
LAFAYETTE      PTSUNNY   43  30  60 W13G18    29.94S
TERRE HAUTE    CLOUDY    44  34  67 NW9       29.98R

$$

INZ030>032-037>040-046>048-054>057-064-065-262100-
CENTRAL INDIANA

CITY           SKY/WX    TMP DP  RH WIND       PRES   REMARKS
CP ATTERBURY + CLOUDY    41  34  75 NW8       29.96R
FRANKFORT +    PTSUNNY   43  33  67 W10       29.95R
GREENWOOD *+   CLOUDY    43  32  65 NW8       29.95R
INDIANAPOLIS   CLOUDY    44  32  62 W13       29.93R
-EAGLE CREEK   CLOUDY    42  32  67 NW9       29.93R
KOKOMO *+        N/A     43  30  61 NW15      29.92R
MT COMFORT *+  CLOUDY    43  25  49 NW10      29.94R
SHELBYVILLE    CLOUDY    44  33  65 NW9       29.93R

$$

INZ033-034-041-042-049-050-058-059-262100-
EAST CENTRAL INDIANA

CITY           SKY/WX    TMP DP  RH WIND       PRES   REMARKS
MUNCIE         PTSUNNY   41  33  73 NW13      29.91R

$$

INZ060-061-067>069-081>083-085>088-262100-
SOUTHWEST INDIANA

CITY           SKY/WX    TMP DP  RH WIND       PRES   REMARKS
EVANSVILLE     CLOUDY    43  34  70 NW8       30.02R
HUNTINGBURG *+ CLOUDY    43  34  70 NW14      29.99S

$$

INZ062-063-066-070>080-084-089>092-262100-
SOUTH CENTRAL AND SOUTHEAST INDIANA

CITY           SKY/WX    TMP DP  RH WIND       PRES   REMARKS
BLOOMINGTON    CLOUDY    42  35  76 W7        29.96R
SEYMOUR +      CLOUDY    45  36  70 NW9       29.95R

$$



USA.gov is the U.S. government's official web portal to all federal, state and local government web resources and services.